Regional Weather Roundup
Issued by NWS Wakefield, VA

Home | Current Version | Previous Version | Graphics & Text | Print | Product List | Glossary On
Versions: 1 2 3 4 5 6 7 8 9 10 11 12 13 14 15 16 17 18 19 20 21 22 23 24 25 26 27 28 29 30 31 32 33 34 35 36 37 38 39 40 41 42 43 44 45 46 47 48 49 50
852
ASUS41 KAKQ 110215
RWRAKQ

REGIONAL WEATHER ROUNDUP
NATIONAL WEATHER SERVICE WAKEFIELD VA
900 PM EST WED FEB 10 2016

Note: "fair" indicates few or no clouds below 12,000 feet with no
significant weather and/or obstructions to visibility. * = Denotes
station may not report precipitation (e.g., rain,snow,etc.),
thunder or fog.

VAZ042-051-052>054-056-110300-
NORTHERN VIRGINIA

CITY           SKY/WX    TMP DP  RH WIND       PRES   REMARKS
WASH NATIONAL  CLOUDY    27  10  49 NW17G32   29.94R WCI  14
DULLES         CLOUDY    25  10  53 NW14      29.93R WCI  13
FORT BELVOIR   NOT AVBL
QUANTICO       CLOUDY    29  12  49 NW12      29.97R WCI  19
FREDERICKSBRG* CLOUDY    28  13  53 NW9G18    29.95R
STAFFORD*      CLOUDY    26  11  52 NW6       29.98S
WARRENTON      CLOUDY    26  14  60 W5        29.93R
CULPEPER*      CLOUDY    26   7  45 W5        29.95R
MANASSAS*      CLOUDY    27  12  54 NW12G18   29.94R WCI  16
LEESBURG*      CLOUDY    27  18  69 NW13G18   29.93R WCI  16
WINCHESTER     CLOUDY    25   9  50 W17G26    29.90S WCI  11
FRONT ROYAL*   CLOUDY    23   5  46 W15       29.91R WCI  10
LURAY*         MOCLDY    23   5  46 SW6       29.92R
$$

VAZ048-049-060>072-079>083-110300-
CENTRAL AND SOUTH CENTRAL VIRGINIA

CITY           SKY/WX    TMP DP  RH WIND       PRES   REMARKS
RICHMOND       CLOUDY    30   8  39 NW17G28   29.93R WCI  18
CHESTERFIELD*  CLOUDY    30   1  29 NW12G20   29.95R WCI  21
PETERSBURG*    FAIR      30   1  28 W10       29.96R WCI  21
HANOVER        CLOUDY    29   8  41 W15G22    29.95R WCI  18
TAPPAHANNOCK*  CLOUDY    29  19  66 NW10G20   29.93R WCI  20
QUINTON*       CLOUDY    31   9  39 W10G18    29.92R WCI  22
CHARLOTTSVILLE CLOUDY    25   2  37 NW9       29.94R
GORDONSVILLE*  CLOUDY    26   4  38 W7        29.94R
ORANGE*        CLOUDY    28   7  40 SW12G20   29.96R WCI  18
LOUISA*        MOCLDY    27   7  43 W6        29.93R
BUMPASS*       CLOUDY    27   6  40 W3        29.94R
FARMVILLE*     FAIR      27   5  39 CALM      29.97R
CREWE*         FAIR      26   6  43 NW7G16    29.97R
FORT PICKETT*  FAIR      26   5  41 W15       29.96R WCI  14
CHASE CITY*    FAIR      26   4  38 W8G17     29.98R
CLARKSVILLE*   FAIR      28   9  43 NW9       29.99R
SOUTH HILL*    FAIR      27   7  43 W8        30.04R
LAWRENCEVILLE* FAIR      28   6  39 NW10      29.97R WCI  18
EMPORIA*       FAIR      28   9  43 SW9G17    29.99R
$$

VAZ088>098-110300-
SOUTHEAST VIRGINIA

CITY           SKY/WX    TMP DP  RH WIND       PRES   REMARKS
NORFOLK        CLOUDY    35  12  38 W12G25    29.90R
VIRGINIA BEACH CLOUDY    41  14  33 NW16G29   29.89R
NORFOLK NAVAL  CLOUDY    35  11  36 W25G32    29.93R WCI  23
WEST POINT*    MOCLDY    33  11  40 W12G20    29.93R WCI  24
SALUDA*        CLOUDY    30  25  79 NW13G22   29.90R WCI  20
NEWPORT NEWS   CLOUDY    33  13  43 W17       29.91R WCI  22
LANGLEY AFB    CLOUDY    34  12  40 W18       29.90R WCI  23
FORT EUSTIS    MOCLDY    33  11  40 W13G20    29.90R WCI  23
WILLIAMSBURG*  FAIR      34  12  40 W15G25    29.93R WCI  24
HR EXEC AP*    CLOUDY    34  10  37 W14G22    29.94R WCI  24
FRANKLIN*      FAIR      30  10  42 W13G21    29.96R WCI  20
US460-WAKEFLD  FAIR      30   9  41 W6        29.95R
$$

VAZ020-022-025-037-045-110300-
WEST CENTRAL AND SOUTHWEST VIRGINIA

CITY           SKY/WX    TMP DP  RH WIND       PRES   REMARKS
STAUNTON*      FAIR      24   6  45 CALM      29.94R
WAYNESBORO*    MOCLDY    19   2  49 CALM      29.91R
HOT SPRINGS VA MOCLDY     9   5  84 W17G24    29.71S WCI -10
LYNCHBURG      FAIR      21   9  59 W7        29.99R
DANVILLE       CLOUDY    27   8  44 NW9       30.02R
SOUTH BOSTON*  FAIR      26   6  42 W8        30.01R
MARTINSVILLE   CLOUDY    23   7  50 W7        30.04R
ROANOKE        CLOUDY    22   4  46 NW12      29.99S WCI  10
BLACKSBURG     CLOUDY    18   8  63 W13G20    29.95R WCI   5
DUBLIN*        FLURRIES  19   8  62 W14G24    29.95R WCI   6
MARION*        CLOUDY    16   6  63 W23G30    29.95R WCI  -2
HILLSVILLE*    FAIR      15   3  59 W14G26    29.88R WCI   0
RICHLANDS*     CLOUDY    13   2  62 W13G23    29.97R WCI  -2
WISE*          FAIR      14   1  57 W9        29.99R
ABINGDON*      FAIR      19   1  46 NW7       30.03R
$$

MDZ021>025-VAZ099-100-110300-
SOUTHERN MARYLAND AND THE DELMARVA PENINSULA

CITY           SKY/WX    TMP DP  RH WIND       PRES   REMARKS
PATUXENT RIVER CLOUDY    29  15  56 NW18      29.90R WCI  16
BAY BRIDGE APT   N/A     30  12  47 W20G26    29.89R WCI  18
LEONARDTOWN    CLOUDY    28  14  54 W7        29.92R
DOVER          MIX PCPN  30  18  59 W18G24    29.83R WCI  18
GEORGETOWN     CLOUDY    32  16  51 NW8       29.85R
EASTON           N/A     30  16  55 NW17G29   29.91R WCI  18
CAMBRIDGE      CLOUDY    30  14  51 W15G23    29.89R WCI  19
SALISBURY      LGT SNOW  31  22  69 NW10      29.86R WCI  22
OCEAN CITY     CLOUDY    32  22  66 NW8       29.84R
WALLOPS ISLAND LGT SNOW  33  26  75 W14G23    29.85R WCI  23
ACCOMACK*      CLOUDY    32  27  80 NW21G31   29.87R WCI  20
$$

NCZ012>017-030>032-110300-
NORTH CENTRAL AND EASTERN NORTH CAROLINA

CITY           SKY/WX    TMP DP  RH WIND       PRES   REMARKS
ROANOKE RAPIDS FAIR      30  10  43 NW10G16   29.98R WCI  21
RALEIGH        CLEAR     29   7  39 W6        30.02R
ELIZABETH CITY CLOUDY    37  20  50 W10       29.91R
AHOSKIE*       CLOUDY    31  10  40 NW7       29.98R
EDENTON*       CLOUDY    39  17  41 W13       29.93R
CURRITUCK*     CLOUDY    38  20  49 W8        29.91R
KILL DEVIL HLS CLOUDY    38  19  45 W12G17    29.89S
MANTEO         CLOUDY    38  20  49 W12       29.92R
CAPE HATTERAS  CLOUDY    40  18  41 W14G24    29.93S
TARBORO*       CLOUDY    34  13  43 W12       30.01R WCI  25
GOLDSBORO      CLEAR     32  14  47 W10       29.99R WCI  24
WASHINGTON     MOCLDY    35  17  48 W12G17    29.97R
GREENVILLE     MOCLDY    36  18  48 NW9       30.00R
NEW BERN       CLEAR     34  16  47 W9        30.00R
WILMINGTON     CLEAR     34  19  54 W8        30.04R
$$

VAZ048-110300-
ELSEWHERE

CITY           SKY/WX    TMP DP  RH WIND       PRES   REMARKS
HARRISBURG PA  MOCLDY    25  12  58 W15       29.85R WCI  13
BALTIMORE      CLOUDY    26  11  52 W16       29.89R WCI  14
ANNAPOLIS      CLOUDY    28  11  48 NW16G24   29.90R WCI  16
ANDREWS AFB    FAIR      26  10  49 NW17G24   29.90R WCI  13
PHILADELPHIA   CLOUDY    32  13  45 W12       29.82S WCI  23
HENDERSON NC   CLEAR     27   6  41 NW6       29.99R
GREENSBORO     CLEAR     25   5  42 NW16G25   30.01R WCI  12
ROCKY MOUNT    PTCLDY    31   9  39 W12G25    30.01R WCI  22
$$

VAZ100-110300-
MARINE

STATION/POSITION TIME  TEMP    WIND        PRES    WAVE   SWELL
                       AIR SEA DIR/SP/G            HT/PER HT/PER
                 (UTC) (F)     (DEG/KT/KT) (MB)    (FT/S) (FT/S)
BRANDYWINE LGT   0100   33     320/ 12/ 15 1009.9R
CAPE MAY NJ      0100   33 42  300/ 15/ 19 1009.5R
LEWES DE         0100   34 41  310/ 13/ 16 1010.0R
15NM E FENWICK I 0150   36 43              1009.8R   3/13
OCEAN-CITY-INLET 0100   35 42  310/  4/  5 1009.2S
WACHAPREAGUE VA  0100   35 43  250/  3/  7 1010.7R
THOMAS POINT MD  0200   29 38  300/ 19/ 21 1012.5
GOOSES REEF MD   0200   29 39  320/ 19/ 25 1013.3R   2/ 3
COVE POINT MD    0100   29     330/ 14/ 25 1012.3R
SOLOMONS ISLAND  0100   29 41  310/ 12/ 21   N/A
BISHOPS HEAD MD  0100   29 40  310/ 21/ 27 1010.7R
PINEY POINT MD   0100          350/ 19/ 23   N/A
POTOMAC MD       0200   30 40  320/ 19/ 25 1012.1R   3/ 3
CAMBRIDGE MD     0100   32 40  300/ 17/ 23 1010.5R
LEWISETTA VA     0100   29 41  340/ 13/ 22 1012.1R
RAPPAHANNOCK LGT 0100          270/ 27/ 31 1010.8R
STINGRAY PT      0100   37 42  270/ 19/ 23 1011.2R   2/ 2
YORK RVR RNG VA  0100   36     300/ 22/ 25 1010.8R
YORKTOWN VA      0100   36 43  280/ 14/ 23 1011.7R
JAMESTOWN VA     0200   32 44  270/ 17/ 23   N/A
DOMINION TERM VA 0100   37     290/ 23/ 26 1011.6R
KIPTOPEKE VA     0100      42  300/ 20/ 27   N/A
CHES BAY BRIDGE  0100   38 42  260/ 23/ 26 1011.1R
CAPE HENRY VA    0100   38     250/ 12/ 20   N/A
CHESAPEAKE LGHT  0100   39     260/ 23/ 27 1011.6R
WILLOUBY STN VA  0100   37     280/ 26/ 28 1012.2R
CAPE HENRY BUOY  0128      44                N/A     4/13   2/13
1ST LANDING BUOY 0200      42                N/A     3/ 4
CAPE CHARLES BUO 0126      43                N/A     4/13   3/13
OFFSHORE WE BUOY 0121      46                N/A     5/ 4   3/13
64NM E OF VA BCH 0150   42 49  280/ 21/ 29 1010.5S   5/10   3/10
DUCK PIER NC     0100   39     270/ 16/ 20 1011.9R
44100 DUCK FRF   0124      47                N/A     4/13   3/13
44056 DUCK FRF   0111      44                N/A     3/13   3/13
OREGON INLET NC  0100   39 44  250/  9/ 15 1012.8R
HATTERAS NC      0100   40 49  270/ 20/ 25 1013.0R
DIAMOND SHLS NC  0150   43 72  290/ 21/ 27 1013.0S   6/1C1F1C2F2C3F3C4F4C5F5C6F6C7F7C8M1C9!



USA.gov is the U.S. government's official web portal to all federal, state and local government web resources and services.